Flag for Canada Weather past 2 weeks in Fredericton, New Brunswick, Canada

Now
43 °F

Light rain. Low clouds.


Feels Like: 37 °F
Forecast: 39 / 45 °F
Wind: 10 mph from North

Location: Fredericton

Current Time: Oct 24, 2014 at 10:08:23 PM

Latest Report: Oct 24, 2014 at 9:00 PM


Visibility: 9 mi

Pressure: 29.61 "Hg

Humidity: 93%

Dew point: 41 °F

Location of FrederictonLocation

Historic Weather in Fredericton — Graph

°F

Fredericton temperature yesterday

Maximum temperature yesterday: 50 °F (at 11:00 AM)
Minimum temperature yesterday: 45 °F (at 12:00 AM)
Average temperature yesterday: 48 °F

Past Weeks' High & Low Weather Summary

 TemperatureHumidityPressure
High73 °F (Oct 15, 2:00 PM)100% (Oct 11, 2:59 AM)30.34 "Hg (Oct 11, 2:59 AM)
Low28 °F (Oct 12, 8:00 AM)30% (Oct 13, 3:00 PM)29.44 "Hg (Oct 19, 12:57 AM)
Average49 °F85%29.95 "Hg
* Reported Oct 9 8:00 PM — Oct 24 8:02 PM, Fredericton, Weather by CustomWeather, © 2014

Note: Actual official high and low records may vary slightly from our data, if they occured in-between our weather recording intervals... More about our weather records

Advertising

Fredericton weather history for previous 24 hours

 ConditionsComfort  
Time TempWeatherWind HumidityBarometerVisibility
8:02 PM
Oct 24
43 °FLight rain. Fog.10 mph93%29.61 "Hg2 mi
7:00 PM43 °FOvercast.9 mph93%29.61 "Hg9 mi
6:03 PM43 °FFog.12 mph93%29.61 "Hg5 mi
5:00 PM43 °FOvercast.15 mph93%29.60 "Hg9 mi
4:00 PM43 °FLight rain. Overcast.10 mph93%29.62 "Hg9 mi
3:00 PM45 °FOvercast.18 mph87%29.61 "Hg9 mi
2:00 PM45 °FLight rain. Fog.16 mph93%29.64 "Hg2 mi
1:00 PM46 °FLight rain. Overcast.15 mph93%29.65 "Hg7 mi
12:00 PM46 °FLight rain. Overcast.15 mph93%29.67 "Hg9 mi
11:00 AM46 °FLight rain. Fog.16 mph100%29.66 "Hg6 mi
10:00 AM46 °FRain. Fog.13 mph100%29.68 "Hg2 mi
9:58 AM46 °FRain. Fog.12 mph100%29.68 "Hg2 mi
9:00 AM46 °FLight rain. Overcast.12 mph100%29.68 "Hg9 mi
8:52 AM46 °FLight rain. Fog.14 mph93%29.68 "Hg6 mi
8:00 AM46 °FLight rain. Fog.12 mph100%29.70 "Hg2 mi
7:49 AM46 °FLight rain. Fog.12 mph100%29.70 "Hg2 mi
7:04 AM46 °FHeavy rain. Fog.9 mph100%29.71 "Hg5 mi
6:50 AM46 °FRain. Fog.10 mph100%29.71 "Hg4 mi
6:00 AM48 °FRain. Fog.15 mph94%29.71 "Hg5 mi
5:57 AM48 °FRain. Fog.15 mph94%29.71 "Hg5 mi
5:00 AM48 °FHeavy rain. Fog.14 mph94%29.72 "Hg4 mi
4:00 AM48 °FRain. Fog.15 mph94%29.74 "Hg4 mi
3:00 AM48 °FRain. Fog.17 mph100%29.76 "Hg2 mi
2:00 AM48 °FRain. Fog.20 mph100%29.77 "Hg2 mi
1:00 AM50 °FLight rain. Overcast.16 mph88%29.80 "Hg9 mi
12:00 AM48 °FLight rain. Fog.18 mph100%29.82 "Hg2 mi
11:00 PM
Oct 23
48 °FRain. Fog.16 mph100%29.84 "Hg2 mi
10:57 PM48 °FRain. Fog.17 mph100%29.84 "Hg2 mi
10:00 PM48 °FRain. Fog.16 mph94%29.86 "Hg2 mi
Weather by CustomWeather, © 2014

See weather overviewHow to use our weather pages